Date String (YYYY-MM-DD hh:mm:ss) UTC,Instrument flags,absolute air pressure of the measurement (hPa),sample flow rate (lpm),inlet stack bypass flow (lpm),air temperature of the measurement (°C),ambient temperature measured by the external sensor (°C),aerosol sample conditioner tube jacket temperature (°C),OPC LED temperature (°C),internal box temperature (°C),relative humidity of the measurement (%),span deviation,mass concentration of particles derived from Lorenz-Mie calculation of OPC scattering (μg/m³),mass concentration of particles derived from Lorenz-Mie calculation of OPC scattering (μg/m³),mass concentration of particles derived from Lorenz-Mie calculation of OPC scattering (μg/m³)
DateTimeUTC,F1_M11,P_M11,Q1_M11,Q2_M11,T1_M11,T2_M11,T3_M11,T4_M11,T5_M11,U1_M11,ZSPAN_M11,X0_M11,X2_M11,X1_M11
2023-10-28 22:00:00,SystemResetWarning,0832.1,5.00,000.00,021.4,020.2,000.0,029.8,023.1,16.0,0000.0,0010.14,0006.41,0005.83
2023-10-28 22:01:00,SystemResetWarning,0832.1,5.00,000.00,021.5,021.1,000.0,029.7,023.4,15.8,-000.1,0010.10,0006.45,0005.87
2023-10-28 22:02:00,SystemResetWarning,0832.2,4.99,000.00,021.6,021.4,000.0,029.7,023.5,15.7,-000.4,0010.24,0006.46,0005.88
2023-10-28 22:03:00,SystemResetWarning,0832.2,4.99,000.00,021.6,021.3,000.0,029.8,023.4,15.7,-001.3,0010.56,0006.46,0005.89
2023-10-28 22:04:00,SystemResetWarning,0832.2,5.00,000.00,021.6,021.1,000.0,029.8,023.3,15.8,-001.5,0010.38,0006.47,0005.88
2023-10-28 22:05:00,SystemResetWarning,0832.2,5.00,000.00,021.6,021.0,000.0,029.9,023.2,15.9,-001.0,0010.21,0006.46,0005.89
2023-10-28 22:06:00,SystemResetWarning,0832.2,5.00,000.00,021.6,020.8,000.0,029.9,023.2,16.0,-000.5,0010.30,0006.50,0005.91
2023-10-28 22:07:00,SystemResetWarning,0832.2,5.00,000.00,021.6,020.7,000.0,029.9,023.2,16.0,-000.2,0010.21,0006.48,0005.90
2023-10-28 22:08:00,SystemResetWarning,0832.2,5.00,000.00,021.6,020.6,000.0,029.9,023.2,16.0,-000.6,0010.26,0006.52,0005.92
2023-10-28 22:09:00,SystemResetWarning,0832.2,5.00,000.00,021.6,020.5,000.0,029.9,023.1,15.9,-000.8,0010.29,0006.51,0005.91
2023-10-28 22:10:00,SystemResetWarning,0832.2,5.00,000.00,021.6,020.4,000.0,029.9,023.1,15.8,-000.4,0010.39,0006.51,0005.88
2023-10-28 22:11:00,SystemResetWarning,0832.2,4.99,000.00,021.6,020.4,000.0,029.9,023.1,15.8,0000.0,0010.43,0006.47,0005.84
2023-10-28 22:12:00,SystemResetWarning,0832.2,5.00,000.00,021.6,020.3,000.0,029.9,023.0,15.8,0000.0,0010.44,0006.45,0005.80
2023-10-28 22:13:00,SystemResetWarning,0832.2,5.01,000.00,021.6,020.3,000.0,029.9,023.0,15.8,0000.0,0010.24,0006.44,0005.79
2023-10-28 22:14:00,SystemResetWarning,0832.2,5.01,000.00,021.5,020.2,000.0,029.9,023.0,15.8,0000.0,0010.13,0006.45,0005.79
2023-10-28 22:15:00,SystemResetWarning,0832.2,5.00,000.00,021.5,020.2,000.0,029.9,023.0,15.8,0000.0,0009.99,0006.43,0005.80
2023-10-28 22:16:00,SystemResetWarning,0832.2,4.99,000.00,021.5,020.2,000.0,029.9,023.0,15.8,0000.0,0010.17,0006.43,0005.81
2023-10-28 22:17:00,SystemResetWarning,0832.2,4.99,000.00,021.5,020.1,000.0,029.9,023.0,15.8,0000.0,0010.23,0006.42,0005.80
2023-10-28 22:18:00,SystemResetWarning,0832.2,5.01,000.00,021.5,020.1,000.0,029.9,022.9,15.8,0000.0,0010.32,0006.44,0005.81
2023-10-28 22:19:00,SystemResetWarning,0832.2,5.01,000.00,021.5,020.1,000.0,029.9,022.9,15.9,0000.0,0010.32,0006.42,0005.79
2023-10-28 22:20:00,SystemResetWarning,0832.2,4.99,000.00,021.5,020.1,000.0,029.9,022.9,16.0,0000.0,0010.39,0006.40,0005.76
2023-10-28 22:21:00,SystemResetWarning,0832.2,5.00,000.00,021.4,020.1,000.0,029.9,022.9,16.0,0000.0,0010.37,0006.42,0005.77
2023-10-28 22:22:00,SystemResetWarning,0832.2,4.99,000.00,021.4,020.0,000.0,029.9,022.9,16.0,0000.0,0010.41,0006.46,0005.78
2023-10-28 22:23:00,SystemResetWarning,0832.2,5.01,000.00,021.4,020.0,000.0,029.9,022.9,16.0,0000.0,0010.38,0006.48,0005.80
2023-10-28 22:24:00,SystemResetWarning,0832.2,5.01,000.00,021.4,020.0,000.0,029.9,022.9,15.9,0000.0,0010.40,0006.48,0005.80
2023-10-28 22:25:00,SystemResetWarning,0832.2,5.00,000.00,021.4,020.0,000.0,029.8,022.9,15.9,0000.0,0010.14,0006.47,0005.80
2023-10-28 22:26:00,SystemResetWarning,0832.2,5.00,000.00,021.4,020.0,000.0,029.8,022.9,16.0,0000.0,0011.13,0006.48,0005.79
2023-10-28 22:27:00,SystemResetWarning,0832.2,5.00,000.00,021.4,020.0,000.0,029.8,022.9,16.0,0000.0,0011.19,0006.46,0005.78
2023-10-28 22:28:00,SystemResetWarning,0832.2,5.00,000.00,021.4,020.0,000.0,029.8,022.9,16.0,0000.0,0011.11,0006.45,0005.78
2023-10-28 22:29:00,SystemResetWarning,0832.2,5.00,000.00,021.4,020.1,000.0,029.8,022.9,16.0,0000.0,0011.05,0006.44,0005.78
2023-10-28 22:30:00,SystemResetWarning,0832.2,5.00,000.00,021.4,020.0,000.0,029.8,022.9,16.0,0000.0,0011.15,0006.44,0005.78
2023-10-28 22:31:00,SystemResetWarning,0832.2,4.99,000.00,021.4,020.0,000.0,029.8,022.9,16.0,0000.0,0011.11,0006.42,0005.77
2023-10-28 22:32:00,SystemResetWarning,0832.1,5.00,000.00,021.4,020.1,000.0,029.8,023.0,16.0,0000.0,0011.02,0006.38,0005.75
2023-10-28 22:33:00,SystemResetWarning,0832.2,5.02,000.00,021.5,020.7,000.0,029.7,023.3,16.0,0000.0,0010.90,0006.32,0005.73
2023-10-28 22:34:00,SystemResetWarning,0832.2,4.99,000.00,021.6,021.5,000.0,029.7,023.5,15.9,0000.0,0010.85,0006.32,0005.72
2023-10-28 22:35:00,SystemResetWarning,0832.1,4.99,000.00,021.6,021.4,000.0,029.7,023.4,15.9,0000.0,0010.77,0006.29,0005.71
2023-10-28 22:36:00,SystemResetWarning,0832.1,4.99,000.00,021.6,021.2,000.0,029.8,023.3,15.8,0000.0,0010.78,0006.32,0005.73
2023-10-28 22:37:00,SystemResetWarning,0832.1,5.00,000.00,021.6,021.0,000.0,029.8,023.2,15.8,0000.0,0010.32,0006.31,0005.72
2023-10-28 22:38:00,SystemResetWarning,0832.1,5.00,000.00,021.6,020.9,000.0,029.9,023.2,15.8,0000.0,0009.93,0006.34,0005.74
2023-10-28 22:39:00,SystemResetWarning,0832.0,5.00,000.00,021.6,020.8,000.0,029.9,023.2,15.8,0000.0,0010.31,0006.38,0005.76
2023-10-28 22:40:00,SystemResetWarning,0832.0,5.00,000.00,021.6,020.6,000.0,029.9,023.2,15.8,0000.0,0010.22,0006.36,0005.76
2023-10-28 22:41:00,SystemResetWarning,0832.0,5.00,000.00,021.6,020.5,000.0,029.9,023.1,15.8,0000.0,0010.09,0006.34,0005.76
2023-10-28 22:42:00,SystemResetWarning,0832.0,4.99,000.00,021.6,020.5,000.0,029.9,023.1,15.8,0000.0,0009.99,0006.34,0005.77
2023-10-28 22:43:00,SystemResetWarning,0831.9,5.00,000.00,021.6,020.4,000.0,029.9,023.1,15.8,0000.0,0009.98,0006.34,0005.77
2023-10-28 22:44:00,SystemResetWarning,0831.9,5.00,000.00,021.6,020.3,000.0,029.9,023.1,15.8,0000.0,0009.97,0006.35,0005.77
2023-10-28 22:45:00,SystemResetWarning,0831.9,4.99,000.00,021.6,020.3,000.0,029.9,023.1,15.8,0000.0,0009.97,0006.34,0005.78
2023-10-28 22:46:00,SystemResetWarning,0831.9,5.01,000.00,021.6,020.2,000.0,029.9,023.0,15.8,0000.0,0009.99,0006.35,0005.80
2023-10-28 22:47:00,SystemResetWarning,0831.9,5.01,000.00,021.5,020.2,000.0,029.9,023.0,15.8,0001.0,0009.95,0006.31,0005.78
2023-10-28 22:48:00,SystemResetWarning,0831.9,5.01,000.00,021.5,020.2,000.0,029.9,023.0,15.8,0000.0,0010.06,0006.31,0005.76
2023-10-28 22:49:00,SystemResetWarning,0831.9,4.99,000.00,021.5,020.1,000.0,029.9,023.0,15.9,0000.0,0009.93,0006.32,0005.75
2023-10-28 22:50:00,SystemResetWarning,0831.8,5.00,000.00,021.5,020.1,000.0,029.9,023.0,15.9,0000.0,0009.33,0006.27,0005.74
2023-10-28 22:51:00,SystemResetWarning,0831.8,5.00,000.00,021.5,020.1,000.0,029.9,023.0,15.9,0000.0,0009.29,0006.23,0005.71
2023-10-28 22:52:00,SystemResetWarning,0831.8,5.00,000.00,021.5,020.1,000.0,029.9,022.9,16.0,0000.0,0009.36,0006.22,0005.69
2023-10-28 22:53:00,SystemResetWarning,0831.9,5.00,000.00,021.4,020.1,000.0,029.9,022.9,15.9,0000.0,0009.43,0006.20,0005.67
2023-10-28 22:54:00,SystemResetWarning,0832.0,5.01,000.00,021.4,020.0,000.0,029.9,022.9,16.0,0000.0,0009.43,0006.16,0005.64
2023-10-28 22:55:00,SystemResetWarning,0832.0,5.00,000.00,021.4,020.0,000.0,029.9,022.9,16.0,0000.0,0009.77,0006.16,0005.64
2023-10-28 22:56:00,SystemResetWarning,0832.0,5.00,000.00,021.4,020.0,000.0,029.9,022.9,16.0,0000.0,0009.96,0006.15,0005.61
2023-10-28 22:57:00,SystemResetWarning,0832.0,5.01,000.00,021.4,020.0,000.0,029.9,022.9,16.0,0000.0,0010.04,0006.16,0005.58
2023-10-28 22:58:00,SystemResetWarning,0832.0,4.99,000.00,021.4,020.0,000.0,029.8,022.9,16.1,0000.0,0010.12,0006.19,0005.57
2023-10-28 22:59:00,SystemResetWarning,0832.0,4.99,000.00,021.4,020.1,000.0,029.8,022.9,16.1,0000.0,0010.08,0006.19,0005.57
